Regional Weather Roundup
Issued by NWS

Home | Current Version | Previous Version | Graphics & Text | Print | Product List | Glossary On
Versions: 1 2 3 4 5 6 7 8 9 10 11 12 13 14 15 16 17 18 19 20 21 22 23 24 25 26 27 28 29 30 31 32 33 34 35 36 37 38 39 40 41 42 43 44 45 46 47 48 49 50
977
ASUS43 KTOP 200408
RWRKS

WEATHER ROUNDUP FOR KANSAS
NATIONAL WEATHER SERVICE GOODLAND KS
1000 PM CST THU JAN 19 2017

NOTE:  "FAIR" INDICATES FEW OR NO CLOUDS BELOW 12,000 FEET WITH NO
SIGNIFICANT WEATHER AND/OR OBSTRUCTIONS TO VISIBILITY.

KSZ001>006-013>018-027>032-041>047-200500-
NORTHWEST KANSAS

CITY           SKY/WX    TMP DP  RH WIND       PRES   REMARKS
GOODLAND       FOG       33  33 100 S8        29.54F VSB 3/4
HAYS           FOG       43  42  97 SE6       29.58S VSB 1/4
HILL CITY      FOG       40  40 100 SW3       29.58S VSB 1/4
RUSSELL        FOG       43  43 100 E9        29.57S VSB 1/2
$$

KSZ061>065-074>080-084>089-200500-
SOUTHWEST KANSAS

CITY           SKY/WX    TMP DP  RH WIND       PRES   REMARKS
DODGE CITY     CLOUDY    43  35  73 CALM      29.56F
ELKHART          N/A     32  27  82 SE6         N/A
GARDEN CITY    CLOUDY    41  36  82 CALM      29.55F
GREAT BEND     FOG       43  43 100 S3        29.59R VSB 3/4
LIBERAL        CLOUDY    34  30  86 CALM      29.56S
PRATT          CLOUDY    36  36  98 CALM      29.58F FOG
$$

KSZ066>073-081>083-090>101-200500-
SOUTHEAST KANSAS

CITY           SKY/WX    TMP DP  RH WIND       PRES   REMARKS
CHANUTE        CLOUDY    47  44  90 CALM      29.62S
COFFEYVILLE    CLOUDY    47  44  90 E7        29.61F
HUTCHINSON     CLOUDY    45  44  97 E6        29.59S FOG
MEDICINE LODGE   N/A     35  35 100 N3        29.57S
NEWTON         CLOUDY    43  43 100 E6        29.59F FOG
PARSONS        CLOUDY    46  44  93 NE3       29.62S
WICHITA INTL   MOCLDY    42  41  96 E5        29.59S
WICHITA JABRA  CLOUDY    45  44  97 E3        29.59F
WICHITA MCCONL CLEAR     44  43  96 SE7       29.58F
WINFIELD       CLOUDY    47  45  93 E6        29.59F
$$

KSZ007>012-019>026-033>040-048>060-102>105-200500-
NORTHEAST KANSAS

CITY           SKY/WX    TMP DP  RH WIND       PRES   REMARKS
CONCORDIA      FOG       41  41 100 E5        29.60F VSB 1/4
EMPORIA        FOG       42  42 100 CALM      29.60F VSB 1/4
LAWRENCE       FOG       45  45 100 CALM      29.64F VSB 1/2
MANHATTAN      CLOUDY    45  44  97 N3        29.62S FOG
MARYSVILLE     LGT RAIN  41  41 100 E3        29.62F
OLATHE IND     CLOUDY    46  45  96 E3        29.64S
OLATHE EXE     CLOUDY    45  45 100 CALM      29.64R FOG
SALINA         CLOUDY    45  43  93 CALM      29.62R FOG
TOPEKA BILLARD CLOUDY    46  43  89 NE3       29.63F FOG
TOPEKA FORBES  CLOUDY    47  45  93 CALM      29.62F FOG
$$




USA.gov is the U.S. government's official web portal to all federal, state and local government web resources and services.